Regional Weather Roundup
Issued by NWS

Home | Current Version | Previous Version | Text Only | Print | Product List | Glossary Off
Versions: 1 2 3 4 5 6 7 8 9 10 11 12 13 14 15 16 17 18 19 20 21 22 23 24 25 26 27 28 29 30 31 32 33 34 35 36 37 38 39 40 41 42 43 44 45 46 47 48 49 50

000
ASUS43 KDTX 271101
RWRMI
MICHIGAN HOURLY REGIONAL WEATHER ROUNDUP
NATIONAL WEATHER SERVICE DETROIT/PONTIAC MI
700 AM EDT SUN MAY 27 2018

NOTE: "FAIR" INDICATES FEW OR NO CLOUDS BELOW 12,000 FEET WITH NO
SIGNIFICANT WEATHER AND/OR OBSTRUCTION TO VISIBILITY.

MIZ047>049-052>055-059>063-066>070-074>076-081>083-271200-
SOUTHEAST LOWER MICHIGAN

CITY           SKY/WX    TMP DP  RH WIND       PRES   REMARKS
ADRIAN         FOG       66  66 100 CALM      29.89R VSB<1/4
ANN ARBOR      FOG       67  67 100 S3        29.87R VSB<1/4
BAD AXE        FAIR      61  61 100 CALM      29.89R FOG
CARO             N/A     61  60  96 CALM      29.89R FOG
DETROIT CITY   FAIR      66  64  93 CALM      29.88R FOG
DETROIT        FAIR      65  62  90 CALM      29.87R FOG
FLINT          FAIR      61  60  97 CALM      29.88R
GROSSE ILE     FOG       64  63  97 CALM      29.87R VSB<1/4
HILLSDALE      FOG       63  61  94 CALM      29.89R VSB<1/4
HOWELL         FOG       63  63  99 CALM      29.88R VSB<1/4

CITY           SKY/WX    TMP DP  RH WIND       PRES   REMARKS
JACKSON        FOG       63  63 100 CALM      29.88R VSB 3/4
LAMBERTVILLE   FOG       65  62  91 CALM      29.87R VSB 1
LANSING        FAIR      63  63 100 CALM      29.88R FOG
LAPEER         FOG       59  59  99 CALM      29.88R VSB 1/4
MASON            N/A     64  62  94 CALM      29.89R FOG
MONROE         FOG       62  60  93 W5        29.87R VSB 1/4
MT. CLEMENS    FOG       63  63 100 CALM        N/A  VSB 1/4
PONTIAC        FOG       66  65  96 CALM      29.87R VSB 1/2
PORT HOPE        N/A     62  60  93 CALM      29.85
PORT HURON       N/A     59  57  94 CALM      29.88R FOG
TRI CITIES     FAIR      65  64  97 CALM      29.90R FOG
MIDLAND        LGT RAIN  60  60 100 CALM      29.89R
TROY           CLOUDY    68  66  93 SW5       29.89R FOG
SAGINAW HB     FAIR      63  61  94 W3        29.89R FOG
$$
MIZ043>046-050>051-056>058-064>065-071>073-077>080-271200-
SOUTHWEST LOWER MICHIGAN

CITY           SKY/WX    TMP DP  RH WIND       PRES   REMARKS
BATTLE CREEK   FAIR      61  59  93 CALM      29.88R
BENTON HARBOR  FAIR      61  59  93 CALM      29.84R
BIG RAPIDS     FAIR      61  59  94 CALM      29.87S
COLDWATER      FOG       62  62 100 CALM      29.88R VSB 1/4
FREMONT        FAIR      60  60 100 CALM      29.84R FOG
HOLLAND        FAIR      64  59  83 CALM      29.84R
GRAND RAPIDS   FAIR      62  60  93 E5        29.86R
IONIA          FOG       62  62 100 CALM      29.86R VSB 1/4
KALAMAZOO      FAIR      62  59  90 S3        29.87R
LUDINGTON      FAIR      62  57  84 CALM      29.83R
MARSHALL       FAIR      61  60  94 CALM      29.87R FOG
MOUNT PLEASANT LGT RAIN  65  65 100 E8        29.86F
MUSKEGON       FAIR      62  58  86 E3        29.84R
SOUTH HAVEN    FAIR      61  59  93 CALM      29.84S
$$
MIZ016>042-271200-
NORTHERN LOWER MICHIGAN

CITY           SKY/WX    TMP DP  RH WIND       PRES   REMARKS
ALPENA         FAIR      59  59 100 CALM      29.83R FOG
BEAVER ISLAND  FAIR      56  56  99 CALM      29.81R FOG
BELLAIRE       FAIR      65  63  90 CALM      29.81R
CADILLAC       MOCLDY    65  63  91 S3        29.87R
CHARLEVOIX     FAIR      65  65 100 E3        29.83R
FRANKFORT      FAIR      59  59 100 CALM      29.81S
GAYLORD        FAIR      64  61  90 S7        29.84R
GRAYLING       FAIR      62  62  98 SW3       29.84R FOG
HARBOR SPRINGS FAIR      62  61  98 CALM      29.81R
HOUGHTON LAKE  FAIR      65  62  90 SW6       29.86F
MANISTEE       FAIR      62  60  93 E3        29.83R
OSCODA         FAIR      60  58  92 SW3       29.85R
PELLSTON       FAIR      61  60  97 CALM      29.81R
ROGERS CITY    FAIR      61  58  91 CALM      29.83R
TRAVERSE CITY  FAIR      68  63  84 S3        29.80R
$$
MIZ007>008-015-271200-
EASTERN UPPER MICHIGAN

CITY           SKY/WX    TMP DP  RH WIND       PRES   REMARKS
KINROSS        FOG       58  58 100 SE5       29.82R VSB 1/2
MACKINAC ISLAN MOCLDY    49  49 100 CALM      29.81S FOG
NEWBERRY       FAIR      56  55  97 CALM      29.80R FOG
S. S. MARIE    MOCLDY    61  59  93 SE3       29.81S
$$
MIZ004>006-011>014-085-271200-
CENTRAL UPPER MICHIGAN

CITY           SKY/WX    TMP DP  RH WIND       PRES   REMARKS
MANISTIQUE     FAIR      53  51  94 SE3       29.80R FOG
ESCANABA       FAIR      52  51  97 CALM      29.79S FOG
MENOMINEE      FAIR      57  56  96 CALM      29.79R
SAWYER-GWINN   FOG       55  54  94 CALM      29.80R VSB 1/16
$$
MIZ001>003-009>011-084-271200-
WESTERN UPPER MICHIGAN

CITY           SKY/WX    TMP DP  RH WIND       PRES   REMARKS
IRON MOUNTAIN  FAIR      57  56  96 CALM      29.79R
HOUGHTON       FAIR      57  53  86 MISG      29.79R
COPPER HARBOR    N/A     48  45  89 N5        29.80R
IRONWOOD       FAIR      52  51  97 MISG      29.83R
$$

ABBREVIATIONS USED IN REMARKS
   TC - TEMPERATURE IN CELSIUS
  WCI - WIND CHILL INDEX
   HX - HEAT INDEX
  VSB - VISIBILITY





USA.gov is the U.S. government's official web portal to all federal, state and local government web resources and services.